Temp
58 58 58 59 58 58 57 55 50 45 48 54 54 57 57 56 53 52 50 47 44 42 41 41 41 41 42 43 43 44 45 45 46 47 47 48 49 49
58 57 57 58 57 57 57 56 55 50 45 54 55 56 55 54 53 51 50 46 44 43 42 41 40 40 40 41 41 42 42 43 43 44 45 46 48 47
57 56 55 56 56 56 56 55 54 53 48 52 55 55 52 50 50 51 50 49 49 45 42 41 39 39 39 39 39 40 40 41 42 42 43 44 46 46
56 56 55 57 54 55 55 53 53 53 50 47 50 51 51 51 49 47 48 50 48 46 42 40 39 38 38 38 38 39 39 39 40 41 41 42 43 45
55 55 55 55 53 54 54 52 53 53 52 48 47 50 50 50 48 47 47 47 49 45 43 41 41 39 39 38 39 38 39 39 39 39 39 40 40 41
52 53 53 53 53 53 53 52 52 51 50 48 47 47 48 49 47 44 44 46 45 47 45 43 40 41 39 40 40 39 39 39 39 39 38 38 38 39
52 53 54 52 48 49 53 53 52 50 48 47 45 46 45 45 43 45 42 43 44 45 45 46 46 45 46 44 43 41 41 39 38 38 39 37 39 39
50 53 54 48 46 41 40 40 45 49 46 45 45 43 43 44 44 42 40 38 36 46 42 41 45 44 46 47 42 40 40 39 38 38 39 39 39 38
51 51 52 54 48 51 41 38 37 37 38 45 43 43 42 44 43 40 40 39 38 41 41 38 44 42 46 48 42 40 40 39 38 37 38 38 38 38
51 51 51 52 53 50 49 48 47 47 43 43 43 45 45 45 43 41 39 39 40 43 43 35 42 40 43 45 42 41 39 38 38 38 38 38 38 38
50 51 51 51 46 41 46 46 46 47 43 39 39 37 36 34 36 39 35 35 33 38 43 39 39 38 40 41 44 41 39 39 38 38 38 37 37 37
48 49 42 44 41 38 44 43 41 45 46 45 41 38 36 38 33 37 38 33 34 33 41 36 38 36 32 40 41 42 42 40 38 39 38 38 38 39
44 46 48 39 37 37 38 42 41 45 41 41 43 43 43 43 42 41 41 39 35 35 41 38 35 34 34 33 37 40 41 40 41 43 42 39 36 35
39 43 45 40 38 37 37 37 37 36 39 36 38 37 38 39 42 43 43 42 42 39 40 39 33 32 31 29 30 38 40 40 41 39 41 40 38 36
38 38 36 35 35 36 35 35 35 38 35 33 33 36 39 38 40 41 41 41 40 40 40 38 36 36 33 30 30 33 36 38 39 39 38 36 34 34
36 39 37 34 33 34 35 37 38 39 35 34 34 37 37 34 35 39 36 37 35 36 39 39 38 36 33 35 34 33 36 33 38 38 37 35 34 33
30 33 35 37 37 38 38 36 35 36 33 34 34 34 33 33 33 36 36 35 32 33 34 38 39 38 37 35 31 34 35 34 36 36 35 33 34 33
31 33 32 33 34 37 37 35 34 33 35 35 34 34 33 32 33 34 35 33 32 34 34 36 35 34 35 38 36 34 34 33 34 35 36 32 33 33
30 30 29 30 30 34 37 37 35 35 34 35 34 34 33 32 31 32 32 32 32 34 35 36 34 32 27 26 35 31 32 32 32 33 35 33 32 33
28 27 26 27 28 30 29 34 34 33 33 34 33 32 32 32 31 31 31 31 32 34 33 35 35 33 29 26 26 31 32 30 30 31 32 35 35 32
25 25 25 25 25 27 29 27 33 32 32 32 33 32 31 32 31 32 32 32 31 33 31 32 36 30 34 33 27 30 32 31 30 30 31 33 32 33
22 22 23 23 23 24 23 24 29 32 32 32 32 31 31 32 31 31 32 31 30 31 33 35 36 35 34 30 29 30 32 34 32 31 30 29 29 29
20 20 20 20 21 22 21 21 23 25 32 32 32 32 31 31 32 31 32 32 32 32 32 32 34 35 33 32 29 30 30 31 35 34 32 29 29 29
MSLP
1024.51 1024.63 1024.69 1024.61 1024.79 1024.89 1024.93 1024.89 1024.58 1024.00 1023.55 1023.52 1023.72 1024.12 1024.71 1025.12 1025.31 1025.72 1025.81 1025.63 1025.78 1025.87 1025.66 1025.41 1025.06 1024.61 1024.12 1023.62 1023.17 1022.72 1022.22 1021.77 1021.27 1020.80 1020.39 1019.90 1019.22 1018.95
1024.50 1024.37 1024.54 1024.50 1024.67 1024.82 1024.65 1024.44 1024.44 1024.23 1023.67 1023.69 1023.48 1023.74 1024.29 1024.78 1025.00 1025.30 1025.21 1025.17 1024.85 1024.73 1024.69 1024.61 1024.37 1024.04 1023.63 1023.16 1022.67 1022.18 1021.81 1021.37 1020.95 1020.49 1019.98 1019.42 1018.88 1018.62
1024.32 1024.30 1024.33 1024.41 1024.42 1024.40 1024.42 1024.35 1024.14 1024.05 1023.55 1023.24 1023.32 1023.36 1023.94 1024.74 1024.72 1024.51 1024.51 1024.28 1023.77 1023.68 1023.78 1023.82 1023.73 1023.45 1022.98 1022.48 1022.02 1021.60 1021.17 1020.75 1020.38 1019.95 1019.48 1019.03 1018.49 1018.10
1024.04 1023.92 1023.99 1024.02 1024.13 1024.22 1024.02 1024.00 1023.78 1023.60 1023.54 1023.04 1023.18 1023.21 1023.35 1023.63 1024.11 1024.26 1024.03 1023.66 1023.19 1022.89 1023.09 1023.16 1023.01 1022.63 1022.17 1021.75 1021.34 1020.93 1020.50 1020.08 1019.70 1019.34 1018.98 1018.62 1018.16 1017.60
1023.70 1023.56 1023.46 1023.44 1023.39 1023.54 1023.47 1023.48 1023.26 1023.16 1023.20 1023.21 1022.93 1023.08 1023.05 1023.23 1023.38 1023.44 1023.31 1022.94 1022.45 1022.17 1022.07 1021.90 1021.84 1021.63 1021.35 1020.93 1020.52 1020.10 1019.73 1019.35 1019.01 1018.67 1018.33 1017.98 1017.67 1017.31
1023.64 1023.35 1023.17 1022.89 1022.79 1022.89 1022.86 1022.83 1022.85 1022.79 1022.76 1022.78 1022.60 1022.53 1022.49 1022.63 1022.92 1022.79 1022.25 1022.11 1021.73 1021.50 1021.17 1020.84 1020.85 1020.36 1020.08 1019.70 1019.39 1019.15 1018.86 1018.51 1018.25 1017.94 1017.62 1017.24 1016.92 1016.72
1023.12 1022.71 1022.37 1022.16 1022.26 1022.27 1022.28 1022.05 1022.18 1022.29 1022.50 1022.32 1022.06 1022.02 1021.89 1021.96 1021.99 1022.14 1022.12 1021.68 1021.39 1020.99 1020.35 1019.88 1019.58 1019.07 1018.40 1018.10 1017.92 1017.81 1017.88 1017.84 1017.60 1017.23 1016.71 1016.45 1015.96 1015.74
1022.21 1021.84 1021.51 1021.70 1021.90 1022.09 1022.17 1022.12 1022.24 1021.98 1021.99 1022.04 1021.82 1021.60 1021.50 1021.66 1021.75 1021.98 1021.86 1021.50 1020.60 1020.42 1020.13 1019.68 1019.25 1018.40 1017.73 1017.16 1017.06 1017.40 1017.35 1017.05 1016.73 1016.46 1016.05 1015.64 1015.34 1015.05
1021.69 1021.21 1020.81 1020.59 1020.78 1021.30 1021.52 1021.82 1022.00 1022.00 1022.15 1022.06 1021.52 1021.31 1021.21 1021.36 1021.58 1021.72 1021.55 1021.21 1020.73 1020.45 1020.14 1019.02 1018.58 1017.86 1017.24 1016.58 1016.69 1016.85 1016.60 1016.41 1016.11 1015.82 1015.46 1015.11 1014.81 1014.50
1021.02 1020.61 1020.23 1019.94 1019.78 1019.98 1020.37 1020.18 1020.65 1020.77 1021.32 1021.64 1021.34 1020.97 1020.89 1021.13 1021.49 1021.62 1021.55 1021.18 1020.61 1019.84 1019.43 1018.47 1018.04 1017.43 1016.99 1016.50 1016.15 1016.06 1016.02 1015.72 1015.37 1015.09 1014.78 1014.44 1014.03 1013.66
1020.39 1019.99 1019.59 1019.22 1019.13 1019.27 1019.57 1019.33 1019.30 1019.23 1019.62 1020.29 1020.62 1020.84 1021.16 1021.61 1021.96 1021.71 1021.18 1020.60 1019.79 1019.13 1018.78 1018.31 1017.88 1017.41 1017.05 1016.24 1015.36 1015.32 1015.21 1014.79 1014.42 1014.10 1013.77 1013.47 1013.06 1012.60
1019.88 1019.32 1019.06 1018.97 1018.90 1018.76 1018.80 1018.74 1018.33 1018.17 1018.44 1018.98 1019.94 1020.43 1020.82 1020.73 1021.48 1021.44 1020.70 1019.99 1019.39 1018.75 1018.40 1018.38 1017.79 1017.59 1016.67 1016.09 1015.29 1015.11 1014.42 1013.86 1013.56 1012.98 1012.51 1012.14 1011.83 1011.44
1019.39 1018.74 1018.37 1018.22 1018.13 1018.27 1018.35 1018.07 1017.63 1017.74 1017.80 1018.56 1018.48 1018.55 1018.61 1018.87 1019.14 1019.58 1019.59 1019.26 1018.94 1018.44 1018.25 1018.55 1018.03 1017.60 1017.03 1015.88 1015.52 1014.76 1013.94 1013.32 1012.66 1011.84 1010.97 1010.93 1011.12 1010.80
1019.54 1018.73 1018.02 1017.69 1017.41 1017.38 1017.49 1017.28 1017.13 1017.22 1017.44 1017.72 1017.75 1017.74 1017.81 1017.89 1017.85 1017.92 1018.13 1018.32 1018.36 1018.36 1018.26 1018.27 1017.92 1017.54 1016.86 1016.12 1015.13 1014.34 1013.37 1012.94 1012.33 1011.67 1010.83 1010.34 1009.80 1009.09
1019.68 1018.79 1018.14 1017.62 1017.26 1016.81 1016.53 1016.20 1016.25 1016.49 1016.67 1016.67 1016.70 1016.76 1016.77 1017.26 1017.50 1017.37 1017.63 1017.91 1017.97 1017.86 1017.84 1017.80 1017.52 1017.01 1016.60 1015.91 1015.09 1014.28 1013.14 1012.51 1012.04 1011.49 1010.69 1010.09 1009.15 1008.06
1019.40 1018.23 1017.49 1016.91 1016.38 1015.96 1015.48 1015.12 1015.02 1014.97 1015.16 1015.37 1015.58 1015.88 1016.31 1016.82 1016.90 1016.85 1017.03 1017.19 1017.25 1016.95 1016.88 1016.87 1016.93 1016.76 1016.08 1015.39 1014.73 1013.83 1013.18 1012.47 1012.01 1011.47 1010.71 1009.85 1008.66 1007.84
1019.28 1017.65 1016.51 1015.52 1014.82 1014.24 1013.84 1013.82 1013.86 1013.77 1014.15 1014.42 1014.75 1015.06 1015.47 1015.84 1016.07 1016.17 1016.33 1016.57 1016.59 1016.40 1016.16 1016.03 1015.89 1015.88 1015.62 1015.16 1014.46 1013.80 1013.13 1012.61 1012.22 1011.63 1010.65 1009.72 1008.71 1008.06
1018.48 1016.94 1015.83 1015.07 1014.36 1013.57 1012.93 1012.86 1012.96 1013.09 1013.08 1013.42 1013.75 1014.27 1014.57 1014.93 1015.08 1015.40 1015.66 1015.91 1015.87 1015.72 1015.57 1015.40 1015.30 1015.15 1014.43 1013.58 1013.92 1013.59 1013.28 1012.85 1012.39 1011.69 1010.74 1010.02 1009.14 1008.73
1018.41 1017.54 1016.66 1015.81 1014.92 1013.83 1012.57 1012.15 1012.00 1012.21 1012.48 1012.55 1012.93 1013.35 1013.78 1014.15 1014.44 1014.64 1014.95 1015.25 1015.30 1015.20 1015.09 1014.98 1014.93 1014.75 1014.28 1013.81 1013.59 1014.15 1013.62 1013.27 1012.52 1011.63 1010.91 1010.48 1009.95 1009.57
1019.04 1018.33 1017.51 1016.71 1015.78 1014.56 1013.83 1012.09 1011.68 1011.83 1011.76 1011.89 1012.29 1012.67 1013.03 1013.38 1013.60 1013.84 1014.20 1014.36 1014.59 1014.59 1014.59 1014.52 1014.35 1014.36 1014.39 1014.40 1014.29 1014.02 1013.92 1013.72 1013.07 1012.20 1011.44 1010.82 1010.41 1010.24
1019.48 1018.92 1018.33 1017.50 1016.56 1015.50 1014.26 1013.45 1011.31 1011.37 1011.26 1011.36 1011.75 1012.11 1012.43 1012.66 1012.79 1013.10 1013.38 1013.71 1014.21 1014.23 1014.14 1013.96 1013.90 1014.87 1014.76 1014.48 1014.17 1013.44 1013.41 1013.76 1013.64 1013.09 1012.16 1011.23 1010.66 1010.53
1020.17 1019.46 1018.81 1018.22 1017.29 1016.34 1015.34 1014.04 1011.86 1010.79 1010.89 1011.00 1011.27 1011.57 1011.83 1012.02 1012.11 1012.45 1012.78 1013.16 1013.81 1013.94 1013.77 1013.69 1013.99 1014.07 1013.78 1013.80 1013.34 1013.04 1012.99 1013.08 1013.31 1013.35 1013.05 1012.66 1012.02 1011.50
1020.58 1020.06 1019.33 1018.64 1017.82 1016.91 1016.09 1015.10 1013.80 1012.46 1010.73 1010.71 1010.81 1011.04 1011.21 1011.33 1011.53 1011.84 1012.24 1012.72 1013.00 1013.28 1013.58 1013.56 1013.54 1013.57 1013.44 1013.33 1013.44 1012.94 1013.01 1012.91 1012.69 1012.72 1013.12 1013.29 1013.02 1012.83
Wind_Speed
7 7 6 5 5 5 6 7 8 9 9 8 7 5 6 7 7 10 13 17 16 19 19 19 20 22 23 23 24 25 25 26 27 26 26 27 28 25
6 7 7 5 6 6 7 7 7 9 11 8 8 8 7 8 9 11 14 16 18 15 17 18 20 22 23 24 24 25 25 25 24 25 27 28 28 26
8 8 8 8 7 7 7 8 8 8 11 9 8 9 7 10 12 12 12 13 12 14 14 18 21 22 22 23 22 22 23 23 24 24 25 26 29 27
11 10 11 9 11 11 8 10 10 10 10 14 10 10 11 9 12 13 11 11 12 14 14 19 21 21 21 20 21 22 23 24 25 24 25 25 28 28
11 12 12 12 12 11 10 10 10 9 9 10 11 9 9 8 11 11 11 12 11 15 15 15 16 18 19 22 22 23 23 22 22 22 23 23 24 25
13 14 14 15 15 14 12 12 11 10 10 10 10 10 9 9 9 10 10 9 11 11 13 12 14 20 21 22 21 20 21 20 21 21 22 21 20 23
15 16 16 17 15 15 12 13 11 10 9 10 10 10 10 9 9 8 10 10 11 10 10 10 11 12 12 13 17 19 14 19 21 22 24 22 22 22
14 15 15 14 14 13 13 12 12 12 12 10 10 11 12 10 8 9 9 10 11 8 11 12 11 11 11 11 8 12 17 21 21 21 22 17 18 17
15 15 14 12 12 16 18 14 13 11 13 13 14 13 12 11 10 11 11 11 11 11 12 12 11 11 11 10 8 14 16 16 17 18 19 18 18 18
16 16 16 17 16 14 16 16 16 15 14 11 14 13 12 10 9 10 10 12 11 10 11 12 11 10 11 11 15 12 10 15 17 18 20 19 20 20
14 15 16 16 15 12 16 16 16 15 9 11 11 9 5 6 10 9 9 10 10 10 9 9 9 11 11 12 10 2 13 14 16 18 19 21 21 21
14 15 13 15 16 11 15 15 16 16 15 14 12 14 15 14 16 13 10 10 10 11 9 9 10 11 10 11 8 12 10 13 13 19 21 21 20 12
12 13 12 10 16 17 18 15 15 14 12 12 12 11 11 11 10 13 13 10 10 11 8 8 10 10 10 12 11 12 9 10 12 14 13 8 17 20
14 13 14 15 14 17 16 22 20 12 10 9 10 11 11 10 10 10 11 10 9 12 12 11 10 10 11 12 13 12 12 8 11 10 11 15 22 22
12 17 23 22 24 16 21 23 16 11 11 10 10 12 11 9 11 9 8 10 11 12 10 12 10 11 10 11 12 13 12 10 9 10 10 11 13 11
16 15 17 16 16 17 13 13 12 12 11 11 11 10 9 8 9 8 8 8 8 8 10 9 10 11 11 11 11 12 11 10 11 10 11 11 10 8
19 13 13 12 13 12 11 11 9 9 9 9 9 9 9 9 9 8 8 7 8 8 8 7 8 9 10 13 11 11 9 10 9 10 12 10 8 9
13 11 11 11 12 13 12 10 9 10 10 9 9 9 10 10 9 8 8 8 8 7 7 7 6 7 9 9 11 7 7 8 9 11 10 9 8 10
11 11 12 12 13 14 12 10 10 9 9 8 9 9 9 10 9 9 8 8 8 7 7 6 6 6 7 8 2 8 7 8 9 8 8 8 7 8
10 12 12 12 13 13 13 13 7 6 7 9 8 8 8 9 9 9 9 9 8 7 6 6 6 5 5 6 6 6 2 6 7 9 8 6 1 4
11 11 12 12 13 13 13 17 8 8 7 6 7 7 7 9 10 9 9 9 8 6 7 6 3 3 6 5 5 6 3 2 4 8 9 6 5 6
11 12 12 12 13 13 13 13 13 6 7 7 6 6 7 9 9 9 8 8 8 7 7 4 4 5 5 5 6 5 2 2 4 7 14 12 5 5
11 11 12 12 11 12 12 12 14 12 5 6 7 7 7 9 9 9 8 9 7 6 6 5 4 4 5 4 4 4 1 3 1 1 6 10 12 11
Wind_Direction
223 225 240 245 250 259 261 268 272 280 281 291 293 262 254 268 291 296 294 296 314 297 292 297 294 293 293 293 293 294 294 296 297 294 291 290 288 287
235 227 237 251 257 258 263 253 254 267 279 286 288 300 312 296 288 294 287 293 281 279 285 286 291 295 296 293 290 290 291 290 290 291 289 286 284 284
242 246 247 250 253 253 252 258 259 264 272 278 288 295 268 276 288 291 294 295 291 291 297 296 297 298 293 291 289 288 290 290 291 290 289 287 280 282
253 243 248 249 247 254 256 256 257 265 276 283 291 292 289 287 293 292 287 292 291 293 303 296 293 291 289 286 288 288 287 287 286 288 289 286 283 279
262 257 251 250 249 251 251 259 261 261 262 274 283 287 287 285 278 283 290 290 284 296 280 282 287 284 285 284 284 284 285 287 287 284 285 284 279 277
267 265 260 255 254 252 251 250 257 267 267 268 273 281 283 282 280 279 284 300 299 306 292 271 260 269 265 268 272 275 278 283 288 288 284 279 276 273
269 262 256 254 256 251 256 251 256 259 262 268 274 279 278 277 283 304 291 297 301 295 302 302 308 300 290 270 254 256 280 295 290 286 283 283 273 263
274 267 265 245 244 238 236 251 268 266 252 263 276 276 279 278 282 286 292 293 298 305 316 306 301 297 295 284 324 308 292 297 286 281 285 296 299 297
280 280 275 268 233 250 220 228 232 232 241 263 269 267 275 277 285 280 280 291 299 308 301 296 302 298 295 295 292 304 296 302 294 273 277 289 287 286
279 279 276 273 267 240 252 231 228 228 225 232 247 263 266 268 270 275 286 282 280 283 291 297 305 299 305 304 288 276 292 289 296 280 278 284 280 282
283 281 276 273 269 217 239 244 243 242 212 213 250 277 280 257 260 282 272 276 285 293 302 301 309 314 308 297 273 271 299 289 290 276 276 277 276 280
284 281 261 255 277 213 230 240 240 242 236 224 227 239 242 241 227 243 261 267 283 288 294 295 306 310 311 292 317 308 305 308 293 285 265 263 269 273
290 287 283 253 233 241 231 239 239 244 238 248 246 237 232 229 228 218 235 253 273 280 300 304 299 301 291 296 300 297 302 311 313 302 287 281 290 278
297 295 287 279 244 239 234 243 244 226 243 227 230 236 239 238 236 236 241 250 264 277 288 284 284 287 293 294 299 305 302 313 308 309 307 306 294 285
307 301 288 284 285 270 250 244 236 226 228 223 223 235 231 228 249 241 252 268 269 276 275 270 273 283 281 281 290 291 304 311 314 321 307 310 303 299
311 297 294 285 274 267 268 250 226 224 219 222 228 231 223 209 229 229 242 246 260 275 270 261 271 280 280 284 290 295 301 307 322 317 315 310 311 320
310 287 281 278 280 269 257 241 239 217 216 217 227 227 213 208 214 225 231 243 259 271 273 278 272 275 275 277 279 281 302 311 320 318 316 318 328 348
310 312 303 292 286 285 268 248 230 221 219 214 214 222 219 210 212 216 224 231 252 265 272 277 285 294 286 259 230 280 295 320 320 321 317 330 344 9
329 333 327 327 326 329 293 266 243 221 216 221 216 222 220 217 203 210 215 221 244 259 266 275 278 283 302 305 348 251 317 326 325 318 330 347 356 4
334 332 333 331 329 324 328 292 239 234 217 211 216 219 214 215 207 205 216 220 234 248 258 263 261 272 289 312 311 307 257 310 334 333 344 324 9 355
334 329 328 327 328 327 326 325 232 227 222 196 218 216 217 212 209 202 215 212 217 247 254 257 278 51 273 262 245 249 153 128 9 355 345 332 349 41
328 326 327 326 324 327 328 325 319 213 216 213 214 217 216 210 208 201 202 199 208 240 252 262 264 260 253 265 299 288 215 145 176 74 37 33 354 27
326 323 322 322 321 325 330 328 334 334 271 224 217 219 215 212 205 198 197 206 218 220 239 248 250 249 254 264 289 310 113 239 311 89 68 38 56 64